Weather History for Chrysopouli, Greece

Change the Weather History Date:

Thursday, November 15, 2012

  Actual Average Record
Temperature  
Mean Temperature 58 °F -  
Max Temperature 62 °F 57 °F 71 °F (2010)
Min Temperature 51 °F 43 °F 35 °F (2011)
Degree Days  
Heating Degree Days 8    
Growing Degree Days 8 (Base 50)    
Moisture  
Dew Point 43 °F    
Average Humidity 60    
Maximum Humidity 76    
Minimum Humidity 42    
Precipitation  
Precipitation 0.00 in - - ()
Sea Level Pressure  
Sea Level Pressure 30.22 in    
Wind  
Wind Speed 6 mph ()    
Max Wind Speed 14 mph    
Max Gust Speed -    
Visibility 6.2 miles    
Events      
Averages and records for this station are not official NWS values.
T = Trace of Precipitation, MM = Missing Value Source: Averaged Metar Reports

Daily Weather History Graph

Daily Weather History Graph

Search for Another Location

Airport:

Trip Planner

Search our weather history database for the weather conditions in past years. The results will help you decide how hot, cold, wet, or windy it might be!

Date:

Astronomy

Nov. 15, 2012 Rise Set
Actual Time 7:09 AM EET 5:02 PM EET
Civil Twilight 6:39 AM EET 5:32 PM EET
Nautical Twilight 6:06 AM EET 6:05 PM EET
Astronomical Twilight 5:33 AM EET 6:37 PM EET
Moon 8:44 AM EET (11/15) 6:33 PM EET (11/15)
Length of Visible Light 10h 52m
Length of Day
9h 53m
Waxing Crescent, 3% of the Moon is Illuminated
Nov 15
Waxing Crescent
Nov 20
First Quarter
Nov 28
Full
Dec 6
Last Quarter
Dec 13
New

Hourly Weather History & Observations

Time (EET) Temp. Dew Point Humidity Pressure Visibility Wind Dir Wind Speed Gust Speed Precip Events Conditions
5:20 AM 53.6 °F 44.6 °F 72% 30.27 in 6.2 mi Calm Calm - N/A   Mostly Cloudy
5:50 AM 53.6 °F 44.6 °F 72% 30.27 in 6.2 mi Calm Calm - N/A   Mostly Cloudy
6:20 AM 53.6 °F 44.6 °F 72% 30.27 in 6.2 mi Calm Calm - N/A   Mostly Cloudy
6:50 AM 53.6 °F 44.6 °F 72% 30.27 in 6.2 mi NE 4.6 mph - N/A   Mostly Cloudy
7:20 AM 53.6 °F 44.6 °F 72% 30.27 in 6.2 mi ENE 5.8 mph - N/A   Mostly Cloudy
7:50 AM 53.6 °F 42.8 °F 67% 30.27 in 6.2 mi ENE 6.9 mph - N/A   Scattered Clouds
8:20 AM 53.6 °F 42.8 °F 67% 30.27 in 6.2 mi ENE 6.9 mph - N/A   Scattered Clouds
8:50 AM 53.6 °F 42.8 °F 67% 30.27 in 6.2 mi ENE 8.1 mph - N/A   Scattered Clouds
9:20 AM 55.4 °F 42.8 °F 63% 30.27 in 6.2 mi ENE 8.1 mph - N/A   Scattered Clouds
9:50 AM 59.0 °F 42.8 °F 55% 30.27 in 6.2 mi ENE 8.1 mph - N/A   Scattered Clouds
10:20 AM 59.0 °F 42.8 °F 55% 30.27 in 6.2 mi ENE 8.1 mph - N/A   Mostly Cloudy
10:50 AM 60.8 °F 39.2 °F 45% 30.27 in 6.2 mi ENE 9.2 mph - N/A   Mostly Cloudy
11:20 AM 60.8 °F 39.2 °F 45% 30.24 in 6.2 mi ENE 12.7 mph - N/A   Mostly Cloudy
11:50 AM 60.8 °F 37.4 °F 42% 30.24 in 6.2 mi ENE 12.7 mph - N/A   Mostly Cloudy
12:20 PM 60.8 °F 37.4 °F 42% 30.21 in 6.2 mi ENE 11.5 mph - N/A   Scattered Clouds
12:50 PM 62.6 °F 42.8 °F 48% 30.21 in 6.2 mi ENE 11.5 mph - N/A   Scattered Clouds
1:20 PM 62.6 °F 42.8 °F 48% 30.21 in 6.2 mi ENE 11.5 mph - N/A   Scattered Clouds
1:50 PM 60.8 °F 42.8 °F 52% 30.21 in 6.2 mi ENE 13.8 mph - N/A   Scattered Clouds
2:20 PM 60.8 °F 42.8 °F 52% 30.18 in 6.2 mi ENE 11.5 mph - N/A   Scattered Clouds
2:50 PM 60.8 °F 44.6 °F 55% 30.18 in 6.2 mi ENE 12.7 mph - N/A   Scattered Clouds
3:20 PM 60.8 °F 44.6 °F 55% 30.18 in 6.2 mi ENE 11.5 mph - N/A   Scattered Clouds
3:50 PM 59.0 °F 42.8 °F 55% 30.18 in 6.2 mi ENE 12.7 mph - N/A   Scattered Clouds
4:20 PM 59.0 °F 42.8 °F 55% 30.18 in 6.2 mi ENE 12.7 mph - N/A   Scattered Clouds
4:50 PM 57.2 °F 42.8 °F 59% 30.18 in 6.2 mi ENE 8.1 mph - N/A   Mostly Cloudy
5:20 PM 57.2 °F 42.8 °F 59% 30.18 in 6.2 mi ENE 8.1 mph - N/A   Mostly Cloudy
5:50 PM 55.4 °F 42.8 °F 63% 30.18 in 6.2 mi ENE 6.9 mph - N/A   Scattered Clouds
6:20 PM 53.6 °F 42.8 °F 67% 30.18 in 6.2 mi ENE 5.8 mph - N/A   Scattered Clouds
6:50 PM 53.6 °F 42.8 °F 67% 30.18 in 6.2 mi ENE 5.8 mph - N/A   Scattered Clouds
7:20 PM 53.6 °F 42.8 °F 67% 30.18 in 6.2 mi ENE 5.8 mph - N/A   Scattered Clouds
7:50 PM 51.8 °F 44.6 °F 76% 30.18 in 6.2 mi Calm Calm - N/A   Scattered Clouds